Location: ???? ????
(41.4149°N, 22.8816°E)
Time: 15:01:00
(UTC+00:00)

Cosmos 2082 Rocket - Pass Details

Date: 14 July 2020
Orbit: 833 x 853 km, 71.0° (Epoch: 04 August)

Event Time Altitude Azimuth Distance (km) Brightness Sun altitude
Exits shadow 02:22:36 - 256° (WSW) 2,761 4.3 -7.8°
Reaches altitude 10° 02:23:37 10° 263° (W) 2,482 4.1 -7.6°
Maximum altitude 02:27:45 20° 309° (NW) 1,866 3.9 -7.0°
Drops below altitude 10° 02:31:54 10° 356° (N) 2,487 5.1 -6.4°
Sets 02:35:02 0° 13° (NNE) 3,424 6.2 -5.9°
